Location: La Brionne
(46.1728°N, 1.7849°E)
Time: 04:15:55
(UTC+00:00)

CAS-6 - Visible Passes

Search period start: 29 March 2023 00:00
Search period end: 08 April 2023 00:00
Orbit: 612 x 632 km, 97.9° (Epoch: 28 March)

Date Brightness Start Highest point End Pass type
(mag) Time Alt. Az. Time Alt. Az. Time Alt. Az.
29 Mar ? 20:42:28 12° NE 20:42:28 12° NE 20:43:10 10° NNE visible
29 Mar ? 22:19:40 18° NNW 22:19:40 18° NNW 22:20:53 10° NNW visible
30 Mar ? 21:00:26 16° NNE 21:00:26 16° NNE 21:01:44 10° NNE visible
30 Mar ? 22:37:38 16° NNW 22:37:38 16° NNW 22:38:38 10° NNW visible
31 Mar ? 21:18:23 19° NNE 21:18:23 19° NNE 21:20:02 10° N visible
31 Mar ? 22:55:35 14° NW 22:55:35 14° NW 22:56:14 10° NNW visible
01 Apr ? 21:36:20 23° NNE 21:36:20 23° NNE 21:38:09 10° N visible
01 Apr ? 23:13:32 10° NW 23:13:32 10° NW 23:13:38 10° NW visible
02 Apr ? 21:54:17 25° N 21:54:17 25° N 21:56:09 10° N visible
03 Apr ? 20:35:01 12° NE 20:35:01 12° NE 20:35:52 10° NE visible
03 Apr ? 22:12:13 24° NNW 22:12:13 24° NNW 22:14:02 10° NNW visible
04 Apr ? 20:52:58 16° NE 20:52:58 16° NE 20:54:39 10° NNE visible
04 Apr ? 22:30:09 22° NNW 22:30:09 22° NNW 22:31:49 10° NNW visible
05 Apr ? 21:10:54 21° NE 21:10:54 21° NE 21:13:00 10° N visible
05 Apr ? 22:48:05 18° NW 22:48:05 18° NW 22:49:28 10° NNW visible
06 Apr ? 21:28:50 26° NNE 21:28:50 26° NNE 21:31:09 10° N visible
06 Apr ? 23:06:01 14° NW 23:06:01 14° NW 23:06:56 10° NW visible
07 Apr ? 21:46:45 30° N 21:46:45 30° N 21:49:10 10° N visible
07 Apr ? 23:23:57 11° NW 23:23:57 11° NW 23:24:07 10° NW visible
